< < Back
Terminal Aerodrome Forecast


Current Version              Previous Versions:   1  2  3  4  5  6  7  8  9  

Terminal Aerodrome Forecast

255
FTUS44 KMRX 281720
TAFTYS
TAF
KTYS 281720Z 2818/2918 02007KT P6SM BKN250
     FM290100 02003KT P6SM SCT250
     FM290900 00000KT 6SM BR SCT100
     FM291230 00000KT P6SM SCT100
     FM291400 32005KT P6SM SCT250=

Latest METAR

630
SAUS80 KWBC 291000 RRB
MTRTYS
METAR KTYS 290953Z 00000KT 10SM SCT050 SCT150 21/18 A3000 RMK AO2 SLP147
T02110178


USA.gov is the U.S. government's official web portal to all federal, state and local government web resources and services.